Погода в Кропивницком

Украина / Кировоградская область     48°30′37″N   32°15′58″E
темп.,
°C
ветер,
м/с
пор.,
м/с
влажн.,
%
обл.,
%
осадки,
мм/ч
давл.,
гПа
погр.,
м
11 апреля, вс
вс1100:00+6в22490 0.0 102710
03:00+5с22470 0.0 102710
06:00+4ссв22510 0.0 102816
09:00+9св35440 0.0 1029388
12:00+12св55360 0.0 10281543
15:00+14св56351 0.0 10261615
18:00+13ссв4640100 0.0 10251235
21:00+9с4753100 0.0 1026109
12 апреля, пн
пн1200:00+8ссв475783 0.0 1025124
03:00+7ссв4764100 0.0 1024115
06:00+6с4967100 0.0 1023183
09:00+8св4868100 0.0 1023407
12:00+10св457269 0.3 1022615
15:00+10ссв3473100 0.3 1021410
18:00+10сз2276100 0.0 102143
21:00+10ссв1281100 0.0 102116
13 апреля, вт
вт1300:00+10сз1183100 0.0 102013
03:00+10з1185100 0.0 102010
06:00+9юз1188100 0.0 102011
09:00+9ююв2389100 0.3 1020136
12:00+10ю3582100 0.1 1020358
15:00+9ююв3585100 0.1 1020443
18:00+10ююв3585100 0.0 1019492
21:00+9ююв2488100 0.0 1020153
14 апреля, ср
ср1400:00+8ююв259087 0.0 1019157
03:00+7ю249343 0.0 1018117
06:00+7ю2489100 0.0 1018119
09:00+10ююв357394 0.0 1018492
12:00+10ююв4675100 0.0 1017583
15:00+14ююв355420 0.1 10161498
18:00+12вюв4673100 0.2 1015279
21:00+11юв2273100 0.4 101541
15 апреля, чт
чт1500:00+10в2279100 0.4 101440
03:00+9юв3582100 0.4 1014141
06:00+9вюв2282100 0.1 101462
09:00+11вюв4572100 0.1 1014485
12:00+15вюв4449100 0.0 10131279
15:00+16юв3448100 0.1 10121880
18:00+13юз3468100 0.6 1012335
21:00+11зсз3684100 0.9 1012264